Pope Field Airport, NC

2:04 AM EDT on March 26, 2017 (GMT -0400)
Pope Field Airport

Weather History for KPOB - December, 2012

Change the Weather History Date:

Monday, December 24, 2012

  Actual Average Record
Temperature  
Mean Temperature 50 °F -  
Max Temperature 55 °F 57 °F 79 °F (2015)
Min Temperature 46 °F 34 °F 11 °F (1983)
Degree Days  
Heating Degree Days 14    
Moisture  
Dew Point 39 °F    
Average Humidity 70    
Maximum Humidity 92    
Minimum Humidity 44    
Precipitation  
Precipitation 0.03 in - - ()
Sea Level Pressure  
Sea Level Pressure 29.98 in    
Wind  
Wind Speed 5 mph (WSW)    
Max Wind Speed 10 mph    
Max Gust Speed 17 mph    
Visibility 10 miles    
Events Rain    
Averages and records for this station are not official NWS values.
T = Trace of Precipitation, MM = Missing Value Source: NWS Daily Summary

Daily Weather History Graph

Daily Weather History Graph

Search for Another Location

Airport or City:

Trip Planner

Search our weather history database for the weather conditions in past years. The results will help you decide how hot, cold, wet, or windy it might be!

Date:

Astronomy

Dec. 24, 2012 Rise Set
Actual Time 7:22 AM EST 5:09 PM EST
Civil Twilight 6:53 AM EST 5:37 PM EST
Nautical Twilight 6:22 AM EST 6:09 PM EST
Astronomical Twilight 5:51 AM EST 6:40 PM EST
Moon 2:33 PM EST (12/24) 4:02 AM EST (12/24)
Length of Visible Light 10h 44m
Length of Day
9h 47m
Waxing Gibbous, 88% of the Moon is Illuminated
Dec 24
Waxing Gibbous
Dec 28
Full
Jan 4
Last Quarter
Jan 11
New
Jan 18
First Quarter

Hourly Weather History & Observations

Time (EST) Temp. Dew Point Humidity Pressure Visibility Wind Dir Wind Speed Gust Speed Precip Events Conditions
12:55 AM 46.8 °F 33.1 °F 59% 30.06 in 10.0 mi Calm Calm - N/A   Overcast
1:08 AM 48.2 °F 32.0 °F 54% 30.05 in 10.0 mi WSW 5.8 mph - N/A   Light Drizzle
1:22 AM 48.2 °F 33.8 °F 58% 30.05 in 10.0 mi WSW 6.9 mph - N/A   Mostly Cloudy
1:55 AM 47.7 °F 31.8 °F 54% 30.04 in 10.0 mi SW 5.8 mph - 0.00 in   Scattered Clouds
2:27 AM 48.2 °F 32.0 °F 54% 30.04 in 10.0 mi SW 4.6 mph - N/A   Light Drizzle
2:36 AM 48.2 °F 33.8 °F 58% 30.03 in 10.0 mi SW 4.6 mph - N/A   Partly Cloudy
2:55 AM 46.8 °F 35.2 °F 64% 30.03 in 10.0 mi SW 4.6 mph - 0.00 in   Scattered Clouds
3:55 AM 47.3 °F 33.8 °F 59% 30.02 in 10.0 mi SSW 3.5 mph - N/A   Overcast
4:55 AM 47.1 °F 34.9 °F 62% 30.02 in 10.0 mi SSW 6.9 mph - N/A   Overcast
5:55 AM 47.5 °F 33.3 °F 58% 30.03 in 10.0 mi SSW 5.8 mph - N/A   Overcast
6:55 AM 46.8 °F 33.6 °F 60% 30.04 in 10.0 mi Calm Calm - N/A   Overcast
7:55 AM 46.9 °F 34.2 °F 61% 30.04 in 10.0 mi Calm Calm - N/A   Overcast
8:55 AM 48.2 °F 34.3 °F 59% 30.04 in 10.0 mi WSW 3.5 mph - N/A   Overcast
9:55 AM 49.8 °F 34.9 °F 56% 30.05 in 10.0 mi SW 4.6 mph - N/A   Overcast
10:55 AM 51.3 °F 35.2 °F 54% 30.04 in 10.0 mi WSW 5.8 mph - N/A   Mostly Cloudy
11:55 AM 52.9 °F 35.1 °F 51% 30.01 in 10.0 mi Variable 5.8 mph - N/A   Mostly Cloudy
12:55 PM 54.3 °F 32.7 °F 44% 29.98 in 10.0 mi SSW 4.6 mph - N/A   Mostly Cloudy
1:55 PM 55.2 °F 33.8 °F 44% 29.97 in 10.0 mi SW 8.1 mph - N/A   Scattered Clouds
2:54 PM 55.4 °F 33.8 °F 44% 29.96 in 10.0 mi SW 9.2 mph - N/A Rain Light Rain
2:55 PM 54.7 °F 34.9 °F 47% 29.96 in 10.0 mi SW 10.4 mph - 0.00 in Rain Light Rain
3:55 PM 50.2 °F 41.0 °F 71% 29.95 in 10.0 mi SW 8.1 mph - 0.00 in Rain Light Rain
4:55 PM 48.7 °F 42.8 °F 80% 29.93 in 10.0 mi SSW 8.1 mph - 0.02 in Rain Light Rain
5:26 PM 48.2 °F 42.8 °F 82% 29.92 in 10.0 mi SSW 6.9 mph 17.3 mph N/A   Scattered Clouds
5:29 PM 48.2 °F 42.8 °F 82% 29.92 in 10.0 mi Variable 5.8 mph - N/A   Light Drizzle
5:39 PM 48.2 °F 42.8 °F 82% 29.93 in 10.0 mi WSW 8.1 mph - N/A   Scattered Clouds
5:55 PM 48.4 °F 43.9 °F 84% 29.94 in 10.0 mi WSW 4.6 mph - 0.01 in   Mostly Cloudy
6:55 PM 49.3 °F 44.8 °F 84% 29.95 in 10.0 mi WSW 8.1 mph - N/A   Overcast
7:28 PM 50.0 °F 44.6 °F 82% 29.95 in 10.0 mi WSW 6.9 mph - N/A   Light Drizzle
7:37 PM 50.0 °F 44.6 °F 82% 29.94 in 10.0 mi WSW 6.9 mph - N/A   Overcast
7:55 PM 49.3 °F 44.6 °F 84% 29.94 in 10.0 mi WSW 6.9 mph - 0.00 in   Overcast
8:55 PM 49.3 °F 45.1 °F 86% 29.95 in 10.0 mi West 6.9 mph - N/A   Overcast
9:55 PM 49.3 °F 45.9 °F 88% 29.94 in 10.0 mi WSW 5.8 mph - N/A   Overcast
10:00 PM 50.0 °F 46.4 °F 87% 29.94 in 10.0 mi West 5.8 mph - N/A   Overcast
10:48 PM 50.0 °F 46.4 °F 87% 29.96 in 10.0 mi West 6.9 mph - N/A   Overcast
10:50 PM 50.0 °F 46.4 °F 87% 29.95 in 10.0 mi West 6.9 mph - N/A   Overcast
10:51 PM 50.0 °F 46.4 °F 87% 29.95 in 10.0 mi West 6.9 mph - N/A   Overcast
10:55 PM 50.0 °F 46.9 °F 89% 29.95 in 10.0 mi West 5.8 mph - N/A   Overcast
11:04 PM 50.0 °F 46.4 °F 87% 29.95 in 10.0 mi WSW 4.6 mph - N/A   Overcast
11:37 PM 50.0 °F 46.4 °F 87% 29.95 in 10.0 mi WSW 3.5 mph - N/A   Overcast
11:55 PM 50.2 °F 47.8 °F 92% 29.95 in 10.0 mi West 4.6 mph - N/A   Overcast